RFF9986 UUMU-OSLK

Flight info

Callsign RFF9986
Flight time N/A
Altitude 35000
Route K0850F350 DCT TOGMO M56 ABAGI B105 NIMTA B105 WGD G481 ELI A964 STW ADNET N166 TUDEK R114 TBN W88 EZS W701 GAZ B36 TUSYR B544 ALE W6 BAN DCT
Aircraft T154/M-VGD/A

Departure

Time 2026-04-18 05:44
Airport Chkalovskiy Air Base (UUMU)

Arrival

Time N/A
Airport Latakia International Airport (OSLK)
Time Latitude Longitude Altitude Speed Heading
2026-04-18 05:07 55.89118 38.05028 509 ft 0 kts 310°
2026-04-18 05:37 55.89127 38.05009 509 ft 3 kts 310°
2026-04-18 05:37 55.89132 38.04999 509 ft 3 kts 310°
2026-04-18 05:38 55.89140 38.04981 509 ft 1 kts 304°
2026-04-18 05:38 55.89146 38.04952 509 ft 5 kts 282°
2026-04-18 05:38 55.89124 38.04867 509 ft 9 kts 226°
2026-04-18 05:38 55.89074 38.04786 509 ft 9 kts 221°
2026-04-18 05:39 55.89028 38.04715 509 ft 9 kts 220°
2026-04-18 05:39 55.88971 38.04634 509 ft 11 kts 218°
2026-04-18 05:39 55.88921 38.04531 509 ft 10 kts 264°
2026-04-18 05:39 55.88953 38.04405 509 ft 12 kts 310°
2026-04-18 05:40 55.88976 38.04290 509 ft 10 kts 235°
2026-04-18 05:40 55.88914 38.04247 509 ft 9 kts 191°
2026-04-18 05:40 55.88854 38.04227 509 ft 8 kts 191°
2026-04-18 05:40 55.88804 38.04211 509 ft 6 kts 190°
2026-04-18 05:41 55.88763 38.04198 509 ft 5 kts 189°
2026-04-18 05:41 55.88733 38.04189 509 ft 3 kts 189°
2026-04-18 05:41 55.88703 38.04184 509 ft 6 kts 176°
2026-04-18 05:41 55.88648 38.04243 509 ft 9 kts 132°
2026-04-18 05:42 55.88640 38.04259 509 ft 0 kts 131°
2026-04-18 05:43 55.88631 38.04278 509 ft 15 kts 131°
2026-04-18 05:43 55.88397 38.04764 509 ft 87 kts 131°
2026-04-18 05:43 55.87862 38.05874 510 ft 148 kts 130°
2026-04-18 05:44 55.87092 38.07471 702 ft 180 kts 131°
2026-04-18 05:44 55.86214 38.09231 1008 ft 206 kts 131°
2026-04-18 05:44 55.85224 38.11265 1445 ft 234 kts 130°
2026-04-18 05:44 55.84344 38.13853 2147 ft 252 kts 106°
2026-04-18 05:45 55.84214 38.16876 3016 ft 249 kts 83°
2026-04-18 05:45 55.84480 38.19857 3854 ft 243 kts 79°
2026-04-18 05:45 55.84794 38.22760 4583 ft 243 kts 79°
2026-04-18 05:45 55.85046 38.25779 5294 ft 242 kts 83°
2026-04-18 05:46 55.85232 38.28757 5841 ft 248 kts 84°
2026-04-18 05:46 55.85392 38.31804 6508 ft 249 kts 84°
2026-04-18 05:46 55.85543 38.34854 7116 ft 251 kts 84°
2026-04-18 05:46 55.85694 38.37980 7710 ft 254 kts 84°
2026-04-18 05:47 55.85841 38.41058 8314 ft 255 kts 84°
2026-04-18 05:47 55.85994 38.44265 8899 ft 258 kts 84°
2026-04-18 05:47 55.86144 38.47435 9481 ft 260 kts 84°
2026-04-18 05:47 55.86295 38.50653 10049 ft 262 kts 84°
2026-04-18 05:48 55.86338 38.53913 10609 ft 264 kts 93°
2026-04-18 05:48 55.86200 38.57193 11161 ft 266 kts 94°
2026-04-18 05:48 55.86051 38.60451 11701 ft 268 kts 94°
2026-04-18 05:48 55.85916 38.63814 12241 ft 271 kts 93°
2026-04-18 05:49 55.85798 38.67199 12467 ft 287 kts 94°
2026-04-18 05:49 55.85675 38.70940 12388 ft 313 kts 93°
2026-04-18 05:49 55.85551 38.74931 12402 ft 335 kts 93°